Back to catalog

STARLINK-6191

AliveCommunicationsVLEO
NORAD 56378·PAYLOAD·🇺🇸 United States

Launched May 4, 2023 from Cape Canaveral Space Force Station

Loading…

Next Passes (next 24 hours)

TLE

FreshSource: CelesTrak SupGP

Epoch: Sep 14, 2026, 15:00 UTC

1 56378C 23061E   26257.62548611 -.00024506  00000+0 -88793-3 0  2579
2 56378  43.0031 210.6554 0001561 268.3404 236.9363 15.27578156    15

Track STARLINK-6191 in real time with AllMySat

Download on the App Store